This is the latest recevied weather packets stored in our database for station/object NC4J. If no packets are shown the sender has not sent any weather packets the latest 10 day(s).
| Time | Temp. | Humidity | Pressure | Rain* | Wind** | Luminosity | Snow |
|---|---|---|---|---|---|---|---|
| 1777986919 | 13.33° C | 63% | 1017.1 hPa | 0 mm | - | 24 W/m² | - |
| 1777986618 | 12.78° C | 66% | 1017.1 hPa | 0 mm | - | 33 W/m² | - |
| 1777986315 | 12.78° C | 69% | 1017.2 hPa | 0 mm | - | 33 W/m² | - |
| 1777986014 | 12.22° C | 70% | 1017.2 hPa | 0 mm | - | 25 W/m² | - |
| 1777985710 | 11.67° C | 75% | 1017.4 hPa | 0 mm | - | 24 W/m² | - |
| 1777985407 | 11.67° C | 77% | 1017.4 hPa | 0 mm | - | 24 W/m² | - |
| 1777985103 | 11.67° C | 77% | 1017.4 hPa | 0 mm | - | 24 W/m² | - |
| 1777984799 | 11.11° C | 78% | 1017.3 hPa | 0 mm | - | 45 W/m² | - |
| 1777984496 | 10.56° C | 81% | 1017.3 hPa | 0 mm | - | 78 W/m² | - |
| 1777984192 | 10.56° C | 80% | 1017.3 hPa | 0 mm | - | 87 W/m² | - |
| 1777983890 | 10.56° C | 82% | 1017.2 hPa | 0 mm | - | 53 W/m² | - |
| 1777983586 | 10° C | 84% | 1017.1 hPa | 0 mm | - | 85 W/m² | - |
| 1777983283 | 8.89° C | 89% | 1017.4 hPa | 0 mm | - | 100 W/m² | - |
| 1777982979 | 7.78° C | 91% | 1017.2 hPa | 0 mm | - | 76 W/m² | - |
| 1777982676 | 7.22° C | 92% | 1017.1 hPa | 0 mm | - | 19 W/m² | - |
| 1777982375 | 7.22° C | 93% | 1017 hPa | 0 mm | - | 18 W/m² | - |
| 1777982072 | 7.22° C | 94% | 1016.9 hPa | 0 mm | - | 23 W/m² | - |
| 1777981769 | 6.67° C | 96% | 1017 hPa | 0 mm | - | 14 W/m² | - |
| 1777981465 | 5.56° C | 96% | 1017 hPa | 0 mm | - | 15 W/m² | - |
| 1777981162 | 5.56° C | 96% | 1016.9 hPa | 0 mm | - | 12 W/m² | - |
| 1777980859 | 5.56° C | 96% | 1016.9 hPa | 0 mm | - | 11 W/m² | - |
| 1777980554 | 5.56° C | 96% | 1017.1 hPa | 0 mm | - | 10 W/m² | - |
| 1777980253 | 5.56° C | 96% | 1016.8 hPa | 0 mm | - | 9 W/m² | - |
| 1777979948 | 5° C | 96% | 1016.9 hPa | 0 mm | - | 8 W/m² | - |
| 1777979643 | 5° C | 95% | 1016.8 hPa | 0 mm | - | 7 W/m² | - |
* Rain latest hour (hover to see other rain measurements)
** Current wind speed in m/s (hover to see current wind gust speed)